Simultaneous Nadir Overpasses (SNOs) Predictions

Prediction of SNOs between TERRA and METOP-C Satellite Orbit:

Table of predicted SNOs for the next 14.0 days since TLE Epoch: 11/30/2019
Index Date (TERRA) Time (TERRA) Lat,Lon (TERRA) SZA (TERRA ) Date (METOP-C) Time (METOP-C) Lat,Lon (METOP-C) SZA (METOP-C ) Distance(km) Time Diff (sec)
1 11/30/2019 11:55:37 81.32, 48.79 105.95 11/30/2019 11:55:16 81.33, 48.76 105.94 0.67 21
2 11/30/2019 12:45:03 -81.34,-143.29 74.00 11/30/2019 12:45:54 -81.34,-143.11 73.96 3.08 51
3 12/03/2019 07:29:52 81.33, 115.29 106.36 12/03/2019 07:29:37 81.33, 115.20 106.34 1.61 15
4 12/03/2019 08:19:18 -81.34, -76.77 73.60 12/03/2019 08:20:15 -81.34, -76.67 73.56 1.72 57
5 12/06/2019 03:04:06 81.33,-178.25 106.70 12/06/2019 03:03:57 81.33,-178.37 106.69 2.00 9
6 12/06/2019 03:53:32 -81.34, -10.29 73.25 12/06/2019 03:54:35 -81.34, -10.23 73.22 1.25 63
7 12/08/2019 22:38:21 81.33,-111.84 106.98 12/08/2019 22:38:18 81.33,-111.94 106.97 1.69 3
8 12/08/2019 23:27:47 -81.34, 56.14 72.97 12/08/2019 23:28:56 -81.34, 56.21 72.94 1.38 69
9 12/11/2019 17:23:10 -81.32, 146.83 72.83 12/11/2019 17:21:58 -81.33, 146.99 72.84 2.78 72
10 12/11/2019 18:12:36 81.32, -45.47 107.19 12/11/2019 18:12:39 81.33, -45.51 107.19 0.94 3




NCC Satellite Simultaneous Nadir Overpasses (SNOs) Prediction Service
